Tracking 28790 objects as of 19-Apr-2024
HD Live streaming from Space Station
objects crossing your sky now

COSMOS 2091

Track COSMOS 2091 now!
10-day predictions
COSMOS 2091 is classified as:


NORAD ID: 20736
Int'l Code: 1990-070B
Perigee: 1,415.9 km
Apogee: 1,423.4 km
Inclination: 82.6 °
Period: 114.1 minutes
Semi major axis: 7790 km
RCS: 1.144 m2 (large)
Launch date: August 8, 1990
Source: Commonwealth of Independent States (former USSR) (CIS)
Launch site: PLESETSK MISSILE AND SPACE COMPLEX (PKMTR)
Your satellite tracking list
Your tracking list is empty




NASA's NSSDC Master Catalog

Two Line Element Set (TLE):
1 20736U 90070B   24109.92162479  .00000058  00000-0  26255-3 0  9996
2 20736  82.5726 112.0513 0004775  96.5106 342.9807 12.62527191552712
Source of the keplerian elements: AFSPC